Showing default

IRIDIUM 113, 42803

Orbit data source: Space-Track

IRIDIUM 113, 42803 is a payload satellite owned by Iridium (US) in LEO that was launched on Sun, 25 Jun 2017 UTC via an FALCON 9 launch vehicle from the Air Force Western Test Range (AFWTR). Payload-class satellites include a variety of spacecraft equipped with specific instruments for various scientific and technological missions. These include communications satellites like Starlink; space stations such as the ISS; scientific satellites like the Hubble; Earth observation satellites from companies like Planet Labs, Umbra, and HawkEye 360; GPS; miniature CubeSats for education and research; and military/defense satellites.

Loading next visibility...
Identifier
42803, 2017-039A
Orbit
LEO
Country
Flag of USUS
Related business
Manufacturer
OATK SSG Gilbert
Mission
Operational Commercial Communications
Bus & Motor
ELITEBUS, Unknown motor
Mass
860 kg wet, 700 kg dry
Launch date (UTC)
2017-06-25 (9 years ago)
Launch vehicle
FALCON 9
Launch site
Air Force Western Test Range (AFWTR)
Object type
Payload
Rocket body
Debris
Shape & HBR
Trap Box + 2 Pan, 4.8 m
Radar Cross Section
10.154 m², Large (>1 m²)

Expand to show TLE details & history
Last TLE update: 12 hours ago

TLE from 12 hours ago
0 IRIDIUM 113
1 42803U 17039A   26073.84356805  .00001253  00000-0  44041-3 0  9991
2 42803  86.4032   1.5997 0002247  78.1028 282.0420 14.34214658457668
Epoch: 2026-03-14T20:14Z
TLE epoch observation values (Epoch: 2026-03-14T20:14:44.279Z)
Latitude
0.00001°
Longitude
-114.54373°
Altitude
780.393 km
Speed
7.464 km/s
True Right ascension
00h 06m 23s
True Declination
0° 00' 00"
Sunlit
Object was in daylight at epoch
Visualization orbit readout
Latitude
Unknown
Longitude
Unknown
Altitude
Unknown
Speed
Unknown
Apparent Right ascension
Unknown
Apparent Declination
Unknown
Sunlit
N/A
Visualization observer readout
Local Sidereal Time
12:42:21
Azimuth
Unknown
Elevation
Unknown
Doppler factor
Unknown
Orbital elements
Apogee altitude
776.249 km
Perigee altitude
773.035 km
Semi-major axis
7,152.779 km
Eccentricity
0.00022
Inclination
86.4032°
RAAN
1.5997°
Arg. of periapsis
78.1028°
True anomaly
282.01682°
Mean anomaly
282.042°
Eccentric anomaly
282.02941°
Mean motion
3.58782 °/min
Orbital period
100.34 mins
BSTAR
0.00044041
Loading maneuver chart data...
Computing Atmospheric mass density...
Loading historical data...
Loading historical data...
Loading historical data...
Loading historical data...
Loading historical data...
Loading historical data...
Loading historical data...

Documentation

Showing up to 5 results
|